Simultaneous Nadir Overpasses (SNOs) Predictions

Prediction of SNOs between METOP-B and NOAA-19 Satellite Orbit:

Table of predicted SNOs for the next 14.0 days since TLE Epoch: 12/15/2017
Index Date (METOP-B) Time (METOP-B) Lat,Lon (METOP-B) SZA (METOP-B ) Date (NOAA-19) Time (NOAA-19) Lat,Lon (NOAA-19) SZA (NOAA-19 ) Distance(km) Time Diff (sec)
1 12/25/2017 21:35:33 -77.85, 43.66 78.76 12/25/2017 21:34:20 -77.85, 43.66 78.77 0.39 73
2 12/25/2017 22:26:13 77.84,-149.06 101.23 12/25/2017 22:25:22 77.84,-149.05 101.23 0.13 51
3 12/25/2017 23:16:55 -77.84, 18.24 78.78 12/25/2017 23:16:21 -77.84, 18.24 78.78 0.07 34
4 12/26/2017 00:07:35 77.83,-174.48 101.21 12/26/2017 00:07:23 77.83,-174.48 101.21 0.39 12
5 12/26/2017 00:58:17 -77.82, -7.19 78.80 12/26/2017 00:58:22 -77.82, -7.19 78.80 0.26 5
6 12/26/2017 01:48:57 77.81, 160.09 101.19 12/26/2017 01:49:24 77.82, 160.09 101.20 0.81 27
7 12/26/2017 02:39:39 -77.80, -32.61 78.82 12/26/2017 02:40:23 -77.81, -32.62 78.81 0.59 44
8 12/26/2017 03:30:19 77.79, 134.67 101.17 12/26/2017 03:31:25 77.80, 134.66 101.19 1.25 66




NCC Satellite Simultaneous Nadir Overpasses (SNOs) Prediction Service
